When you browse on this site, cookies collect data to enhance your experience and personalize the content and advertising you see.
Visit our Privacy Policy to learn more. By continuing to use the site, you agree to this use of cookies and data.
  • In Hungary
  • List of Countries
  • For 7 days
  • Water Temperature
  • Weather Map
  • News
  • Weather Widgets
  • user-avatar
    Login

    Hourly Weather Tecumseh

    Today, 15 November, Friday

    Time Temperature Precipitation Wind Pressure Humidity
    00:00 -6°C° 0 mm 5 mps 750 mmHg 90%
    01:00 -7°C° 0 mm 5 mps 750 mmHg 90%
    02:00 -7°C° 0 mm 5 mps 750 mmHg 90%
    03:00 -8°C° 0 mm 6 mps 750 mmHg 91%
    04:00 -7°C° 0 mm 5 mps 751 mmHg 92%
    05:00 -8°C° 0 mm 5 mps 751 mmHg 92%
    06:00 -8°C° 0 mm 5 mps 751 mmHg 93%
    07:00 -7°C° 0 mm 5 mps 751 mmHg 92%
    08:00 -6°C° 0 mm 5 mps 751 mmHg 92%
    09:00 -6°C° 0 mm 5 mps 751 mmHg 91%
    10:00 -4°C° 0 mm 4 mps 752 mmHg 93%
    11:00 -3°C° 0 mm 4 mps 752 mmHg 94%
    12:00 -2°C° 0 mm 4 mps 752 mmHg 95%
    13:00 -2°C° 0 mm 4 mps 752 mmHg 95%
    14:00 0°C° 0 mm 3 mps 752 mmHg 94%
    15:00 0°C° 0 mm 3 mps 752 mmHg 93%
    16:00 -1°C° 0 mm 3 mps 752 mmHg 91%
    17:00 -1°C° 0 mm 2 mps 753 mmHg 89%
    18:00 -1°C° 0 mm 2 mps 753 mmHg 87%
    19:00 -2°C° 0 mm 2 mps 754 mmHg 88%
    20:00 -2°C° 0 mm 3 mps 754 mmHg 88%
    21:00 -4°C° 0 mm 3 mps 754 mmHg 89%
    22:00 -4°C° 0 mm 4 mps 754 mmHg 89%
    23:00 -4°C° 0 mm 4 mps 755 mmHg 88%

    Tomorrow, 16 November, Saturday

    Time Temperature Precipitation Wind Pressure Humidity
    00:00 -5°C° 0 mm 5 mps 755 mmHg 88%
    01:00 -6°C° 0 mm 5 mps 755 mmHg 86%
    02:00 -7°C° 0 mm 4 mps 755 mmHg 85%
    03:00 -8°C° 0 mm 4 mps 755 mmHg 83%
    04:00 -9°C° 0 mm 4 mps 755 mmHg 83%
    05:00 -10°C° 0 mm 4 mps 755 mmHg 83%
    06:00 -10°C° 0 mm 4 mps 756 mmHg 83%
    07:00 -9°C° 0 mm 4 mps 756 mmHg 85%
    08:00 -9°C° 0 mm 4 mps 756 mmHg 88%
    09:00 -8°C° 0 mm 4 mps 756 mmHg 90%
    10:00 -5°C° 0 mm 4 mps 756 mmHg 89%
    11:00 -4°C° 0 mm 4 mps 755 mmHg 88%
    12:00 -3°C° 0 mm 4 mps 755 mmHg 87%
    13:00 -3°C° 0 mm 4 mps 754 mmHg 85%
    14:00 -3°C° 0 mm 4 mps 754 mmHg 83%
    15:00 -3°C° 0 mm 4 mps 753 mmHg 82%
    16:00 -4°C° 0 mm 4 mps 753 mmHg 83%
    17:00 -4°C° 0 mm 4 mps 753 mmHg 85%
    18:00 -6°C° 0 mm 5 mps 753 mmHg 86%
    19:00 -5°C° 0 mm 4 mps 752 mmHg 86%
    20:00 -5°C° 0 mm 3 mps 752 mmHg 86%
    21:00 -5°C° 0 mm 3 mps 751 mmHg 85%
    22:00 -5°C° 0 mm 3 mps 751 mmHg 84%
    23:00 -4°C° 0 mm 2 mps 750 mmHg 82%

    Day after tomorrow, 17 November, Sunday

    Time Temperature Precipitation Wind Pressure Humidity
    00:00 -4°C° 0 mm 2 mps 750 mmHg 80%
    01:00 -3°C° 0 mm 2 mps 750 mmHg 79%
    02:00 -3°C° 0 mm 2 mps 749 mmHg 77%
    03:00 -3°C° 0 mm 2 mps 749 mmHg 76%
    04:00 -3°C° 0 mm 2 mps 748 mmHg 76%
    05:00 -4°C° 0 mm 2 mps 748 mmHg 76%
    06:00 -4°C° 0 mm 2 mps 748 mmHg 77%
    07:00 -3°C° 0 mm 2 mps 747 mmHg 77%
    08:00 -2°C° 0 mm 2 mps 747 mmHg 78%
    09:00 -1°C° 0 mm 2 mps 747 mmHg 79%
    10:00 -1°C° 0 mm 2 mps 746 mmHg 81%
    11:00 +1°C° 0 mm 2 mps 745 mmHg 83%
    12:00 +1°C° 0 mm 2 mps 744 mmHg 85%
    13:00 +1°C° 0 mm 2 mps 744 mmHg 83%
    14:00 +1°C° 0 mm 2 mps 743 mmHg 81%
    15:00 +1°C° 0 mm 1 mps 743 mmHg 79%
    16:00 +1°C° 0 mm 1 mps 743 mmHg 80%
    17:00 +1°C° 0 mm 1 mps 742 mmHg 81%
    18:00 +1°C° 0 mm 1 mps 742 mmHg 82%
    19:00 +1°C° 0 mm 1 mps 742 mmHg 81%
    20:00 +1°C° 0 mm 1 mps 742 mmHg 81%
    21:00 -1°C° 0 mm 2 mps 741 mmHg 80%
    22:00 -1°C° 0 mm 2 mps 741 mmHg 81%
    23:00 -1°C° 0 mm 2 mps 740 mmHg 82%

    18 November, Monday

    Time Temperature Precipitation Wind Pressure Humidity
    00:00 -1°C° 0 mm 2 mps 740 mmHg 82%
    01:00 -1°C° 0 mm 2 mps 740 mmHg 83%
    02:00 -1°C° 0 mm 2 mps 739 mmHg 83%
    03:00 -1°C° 0 mm 2 mps 739 mmHg 83%
    04:00 0°C° 0 mm 3 mps 739 mmHg 87%
    05:00 0°C° 0 mm 3 mps 739 mmHg 90%
    06:00 0°C° 0 mm 3 mps 739 mmHg 93%
    07:00 +1°C° 0 mm 3 mps 739 mmHg 94%
    08:00 +1°C° 0 mm 3 mps 739 mmHg 95%
    09:00 +1°C° 0 mm 3 mps 739 mmHg 95%
    10:00 +1°C° 0 mm 3 mps 738 mmHg 93%
    11:00 0°C° 0 mm 4 mps 738 mmHg 91%
    12:00 +1°C° 0 mm 4 mps 738 mmHg 89%
    13:00 +1°C° 0 mm 4 mps 738 mmHg 88%
    14:00 +1°C° 0 mm 4 mps 738 mmHg 87%
    15:00 +2°C° 0 mm 3 mps 738 mmHg 87%
    16:00 +1°C° 0 mm 3 mps 738 mmHg 88%
    17:00 +1°C° 0 mm 3 mps 738 mmHg 88%
    18:00 +1°C° 0 mm 3 mps 738 mmHg 89%
    19:00 +1°C° 0 mm 3 mps 738 mmHg 90%
    20:00 0°C° 0 mm 3 mps 738 mmHg 90%
    21:00 0°C° 0 mm 3 mps 739 mmHg 91%
    22:00 0°C° 0 mm 3 mps 738 mmHg 92%
    23:00 0°C° 0 mm 3 mps 738 mmHg 93%

    19 November, Tuesday

    Time Temperature Precipitation Wind Pressure Humidity
    00:00 0°C° 0 mm 3 mps 738 mmHg 94%
    01:00 -1°C° 0 mm 3 mps 738 mmHg 94%
    02:00 -1°C° 0 mm 3 mps 738 mmHg 95%
    03:00 -1°C° 0 mm 3 mps 738 mmHg 95%
    04:00 -1°C° 0 mm 3 mps 738 mmHg 95%
    05:00 -1°C° 0 mm 3 mps 738 mmHg 96%
    06:00 -1°C° 0 mm 3 mps 738 mmHg 96%
    07:00 -1°C° 0 mm 2 mps 738 mmHg 96%
    08:00 +1°C° 0 mm 2 mps 738 mmHg 96%
    09:00 +1°C° 0 mm 2 mps 739 mmHg 95%
    10:00 +1°C° 0 mm 2 mps 739 mmHg 95%
    11:00 +2°C° 0 mm 2 mps 739 mmHg 95%
    12:00 +2°C° 0 mm 2 mps 739 mmHg 95%
    13:00 +2°C° 0 mm 2 mps 739 mmHg 94%
    14:00 +2°C° 0 mm 2 mps 739 mmHg 93%
    15:00 +3°C° 0 mm 1 mps 739 mmHg 91%
    16:00 +2°C° 0 mm 2 mps 739 mmHg 92%
    17:00 +2°C° 0 mm 2 mps 740 mmHg 94%
    18:00 +2°C° 0 mm 2 mps 740 mmHg 95%
    19:00 +1°C° 0 mm 2 mps 740 mmHg 94%
    20:00 +1°C° 0 mm 2 mps 740 mmHg 94%
    21:00 +1°C° 0 mm 2 mps 741 mmHg 93%
    22:00 +1°C° 0 mm 2 mps 741 mmHg 93%
    23:00 +1°C° 0 mm 2 mps 741 mmHg 93%

    20 November, Wednesday

    Time Temperature Precipitation Wind Pressure Humidity
    00:00 +1°C° 0 mm 2 mps 741 mmHg 93%
    01:00 +1°C° 0 mm 2 mps 741 mmHg 93%
    02:00 +1°C° 0 mm 2 mps 741 mmHg 92%
    03:00 +1°C° 0 mm 2 mps 742 mmHg 91%
    04:00 +1°C° 0 mm 2 mps 742 mmHg 92%
    05:00 0°C° 0 mm 3 mps 742 mmHg 93%
    06:00 0°C° 0 mm 3 mps 743 mmHg 94%
    07:00 0°C° 0 mm 3 mps 743 mmHg 92%
    08:00 0°C° 0 mm 3 mps 744 mmHg 89%
    09:00 +1°C° 0 mm 3 mps 745 mmHg 87%
    10:00 +1°C° 0 mm 3 mps 745 mmHg 84%
    11:00 +2°C° 0 mm 3 mps 745 mmHg 82%
    12:00 +2°C° 0 mm 3 mps 745 mmHg 80%
    13:00 +2°C° 0 mm 3 mps 746 mmHg 79%
    14:00 +1°C° 0 mm 4 mps 746 mmHg 79%
    15:00 +1°C° 0 mm 4 mps 746 mmHg 78%
    16:00 +2°C° 0 mm 3 mps 747 mmHg 79%
    17:00 +2°C° 0 mm 3 mps 747 mmHg 80%
    18:00 +1°C° 0 mm 3 mps 748 mmHg 80%
    19:00 +1°C° 0 mm 3 mps 748 mmHg 80%
    20:00 +1°C° 0 mm 3 mps 749 mmHg 79%
    21:00 +1°C° 0 mm 3 mps 749 mmHg 78%
    22:00 +1°C° 0 mm 3 mps 749 mmHg 78%
    23:00 +1°C° 0 mm 3 mps 749 mmHg 77%
    Show more